Time,TemperatureF,DewpointF,PressureIn,WindDirection,WindDirectionDegrees,WindSpeedMPH,WindSpeedGustMPH,Humidity,HourlyPrecipIn,Conditions,Clouds,dailyrainin,SoftwareType,DateUTC
2013-02-08 00:13:00,29.1,17.0,30.16,South,172,7.0,19.0,61,0.00,,,0.00,weatherlink.com 1.10,2013-02-08 05:13:00,
2013-02-08 00:28:00,28.9,17.0,30.16,SSE,154,5.0,20.0,62,0.00,,,0.00,weatherlink.com 1.10,2013-02-08 05:28:00,
2013-02-08 00:43:00,29.0,18.0,30.14,South,189,15.0,18.0,63,0.00,,,0.00,weatherlink.com 1.10,2013-02-08 05:43:00,
2013-02-08 00:58:00,29.1,18.0,30.14,South,172,10.0,18.0,64,0.00,,,0.00,weatherlink.com 1.10,2013-02-08 05:58:00,
2013-02-08 01:13:00,29.3,19.0,30.13,SSE,156,8.0,21.0,65,0.00,,,0.00,weatherlink.com 1.10,2013-02-08 06:13:00,
2013-02-08 01:28:00,29.4,19.0,30.12,SSE,149,4.0,21.0,65,0.00,,,0.00,weatherlink.com 1.10,2013-02-08 06:28:00,
2013-02-08 01:43:00,29.5,19.0,30.12,South,171,8.0,22.0,66,0.00,,,0.00,weatherlink.com 1.10,2013-02-08 06:43:00,
2013-02-08 01:58:00,29.6,19.0,30.13,SSW,192,11.0,18.0,65,0.00,,,0.00,weatherlink.com 1.10,2013-02-08 06:58:00,
2013-02-08 02:13:00,29.6,19.0,30.12,SSE,158,4.0,21.0,66,0.00,,,0.00,weatherlink.com 1.10,2013-02-08 07:13:00,
2013-02-08 02:28:00,29.7,20.0,30.12,South,181,8.0,19.0,66,0.00,,,0.00,weatherlink.com 1.10,2013-02-08 07:28:00,
2013-02-08 02:43:00,29.7,20.0,30.11,South,176,11.0,21.0,68,0.00,,,0.00,weatherlink.com 1.10,2013-02-08 07:43:00,
2013-02-08 02:58:00,29.8,20.0,30.11,South,180,9.0,22.0,68,0.00,,,0.00,weatherlink.com 1.10,2013-02-08 07:58:00,
2013-02-08 03:13:00,30.0,21.0,30.11,South,191,8.0,22.0,69,0.00,,,0.00,weatherlink.com 1.10,2013-02-08 08:13:00,
2013-02-08 03:28:00,30.0,21.0,30.10,SSE,159,11.0,21.0,70,0.00,,,0.00,weatherlink.com 1.10,2013-02-08 08:28:00,
2013-02-08 03:43:00,30.1,22.0,30.09,South,179,11.0,21.0,71,0.00,,,0.00,weatherlink.com 1.10,2013-02-08 08:43:00,
2013-02-08 03:58:00,30.1,22.0,30.07,SE,129,10.0,19.0,73,0.00,,,0.00,weatherlink.com 1.10,2013-02-08 08:58:00,
2013-02-08 04:13:00,30.3,23.0,30.07,SSE,160,7.0,25.0,74,0.00,,,0.00,weatherlink.com 1.10,2013-02-08 09:13:00,
2013-02-08 04:28:00,30.4,24.0,30.06,South,185,13.0,18.0,76,0.00,,,0.00,weatherlink.com 1.10,2013-02-08 09:28:00,
2013-02-08 04:43:00,30.7,24.0,30.06,South,178,11.0,23.0,77,0.00,,,0.00,weatherlink.com 1.10,2013-02-08 09:43:00,
2013-02-08 04:58:00,30.8,25.0,30.06,South,173,14.0,20.0,79,0.00,,,0.00,weatherlink.com 1.10,2013-02-08 09:58:00,
2013-02-08 05:13:00,30.9,25.0,30.05,South,181,15.0,19.0,80,0.00,,,0.00,weatherlink.com 1.10,2013-02-08 10:13:00,
2013-02-08 05:29:00,31.0,26.0,30.04,SSE,163,4.0,22.0,82,0.00,,,0.00,weatherlink.com 1.10,2013-02-08 10:29:00,
2013-02-08 05:44:00,31.0,26.0,30.04,South,177,9.0,18.0,82,0.00,,,0.00,weatherlink.com 1.10,2013-02-08 10:44:00,
2013-02-08 05:59:00,31.0,26.0,30.04,SE,143,5.0,14.0,83,0.00,,,0.00,weatherlink.com 1.10,2013-02-08 10:59:00,
2013-02-08 06:14:00,30.8,26.0,30.03,SSE,152,3.0,12.0,83,0.00,,,0.00,weatherlink.com 1.10,2013-02-08 11:14:00,
2013-02-08 06:29:00,30.8,27.0,30.03,SE,129,5.0,11.0,84,0.00,,,0.00,weatherlink.com 1.10,2013-02-08 11:29:00,
2013-02-08 06:44:00,30.8,27.0,30.03,SSE,156,4.0,8.0,84,0.00,,,0.00,weatherlink.com 1.10,2013-02-08 11:44:00,
2013-02-08 06:59:00,31.0,27.0,30.02,SSE,164,4.0,13.0,84,0.00,,,0.00,weatherlink.com 1.10,2013-02-08 11:59:00,
2013-02-08 07:14:00,31.1,27.0,30.02,SE,125,7.0,13.0,84,0.00,,,0.00,weatherlink.com 1.10,2013-02-08 12:14:00,
2013-02-08 07:29:00,31.1,27.0,30.01,SE,146,8.0,14.0,84,0.00,,,0.00,weatherlink.com 1.10,2013-02-08 12:29:00,
2013-02-08 07:44:00,31.2,27.0,30.01,SSE,149,10.0,12.0,84,0.00,,,0.00,weatherlink.com 1.10,2013-02-08 12:44:00,
2013-02-08 07:59:00,31.4,27.0,30.00,SSE,163,6.0,13.0,83,0.00,,,0.00,weatherlink.com 1.10,2013-02-08 12:59:00,
2013-02-08 08:14:00,31.7,27.0,30.00,SE,143,10.0,19.0,84,0.00,,,0.00,weatherlink.com 1.10,2013-02-08 13:14:00,
2013-02-08 08:29:00,31.7,27.0,29.99,SE,125,8.0,13.0,84,0.00,,,0.00,weatherlink.com 1.10,2013-02-08 13:29:00,
2013-02-08 08:44:00,31.7,27.0,29.99,SE,141,9.0,13.0,84,0.00,,,0.00,weatherlink.com 1.10,2013-02-08 13:44:00,
2013-02-08 08:59:00,31.8,27.0,29.98,SSE,162,6.0,14.0,83,0.00,,,0.00,weatherlink.com 1.10,2013-02-08 13:59:00,
2013-02-08 09:14:00,32.0,27.0,29.98,SE,144,6.0,16.0,83,0.00,,,0.00,weatherlink.com 1.10,2013-02-08 14:14:00,
2013-02-08 09:29:00,32.3,28.0,29.97,SSE,163,5.0,17.0,83,0.00,,,0.00,weatherlink.com 1.10,2013-02-08 14:29:00,
2013-02-08 09:44:00,32.5,28.0,29.96,SSE,150,8.0,18.0,83,0.00,,,0.00,weatherlink.com 1.10,2013-02-08 14:44:00,
2013-02-08 09:59:00,32.6,28.0,29.95,SE,146,10.0,17.0,83,0.00,,,0.00,weatherlink.com 1.10,2013-02-08 14:59:00,
2013-02-08 10:14:00,32.6,28.0,29.95,SSE,158,8.0,17.0,83,0.00,,,0.00,weatherlink.com 1.10,2013-02-08 15:14:00,
2013-02-08 10:29:00,32.5,28.0,29.94,SE,142,11.0,17.0,83,0.00,,,0.00,weatherlink.com 1.10,2013-02-08 15:29:00,
2013-02-08 10:44:00,32.6,28.0,29.93,SE,124,10.0,18.0,82,0.00,,,0.00,weatherlink.com 1.10,2013-02-08 15:44:00,
2013-02-08 10:59:00,33.0,28.0,29.93,SE,139,13.0,13.0,81,0.00,,,0.00,weatherlink.com 1.10,2013-02-08 15:59:00,
2013-02-08 11:14:00,33.4,28.0,29.91,SE,139,16.0,21.0,80,0.00,,,0.00,weatherlink.com 1.10,2013-02-08 16:14:00,
2013-02-08 11:29:00,33.5,28.0,29.89,SE,139,13.0,27.0,80,0.00,,,0.00,weatherlink.com 1.10,2013-02-08 16:29:00,
2013-02-08 11:44:00,33.6,28.0,29.88,SE,137,15.0,23.0,79,0.00,,,0.00,weatherlink.com 1.10,2013-02-08 16:44:00,
2013-02-08 11:59:00,33.6,28.0,29.87,SSE,152,9.0,17.0,79,0.00,,,0.00,weatherlink.com 1.10,2013-02-08 16:59:00,
2013-02-08 12:14:00,33.7,28.0,29.87,SE,145,13.0,23.0,79,0.00,,,0.00,weatherlink.com 1.10,2013-02-08 17:14:00,
2013-02-08 12:30:00,33.6,28.0,29.85,ESE,116,11.0,20.0,79,0.00,,,0.00,weatherlink.com 1.10,2013-02-08 17:30:00,
2013-02-08 12:45:00,33.6,28.0,29.83,SE,135,18.0,23.0,79,0.00,,,0.00,weatherlink.com 1.10,2013-02-08 17:45:00,
2013-02-08 13:00:00,33.8,28.0,29.83,SE,129,17.0,24.0,78,0.00,,,0.00,weatherlink.com 1.10,2013-02-08 18:00:00,
2013-02-08 13:15:00,33.8,28.0,29.83,SSE,148,9.0,22.0,79,0.00,,,0.00,weatherlink.com 1.10,2013-02-08 18:15:00,
2013-02-08 13:30:00,33.9,28.0,29.82,SE,143,10.0,20.0,79,0.00,,,0.00,weatherlink.com 1.10,2013-02-08 18:30:00,
2013-02-08 13:45:00,34.2,28.0,29.82,South,174,6.0,20.0,79,0.00,,,0.00,weatherlink.com 1.10,2013-02-08 18:45:00,
2013-02-08 14:00:00,34.4,28.0,29.82,SE,145,8.0,13.0,78,0.00,,,0.00,weatherlink.com 1.10,2013-02-08 19:00:00,
2013-02-08 14:15:00,34.5,28.0,29.81,SSE,149,0.0,5.0,78,0.00,,,0.00,weatherlink.com 1.10,2013-02-08 19:15:00,
2013-02-08 14:30:00,34.6,28.0,29.81,SSE,149,0.0,0.0,78,0.00,,,0.00,weatherlink.com 1.10,2013-02-08 19:30:00,
2013-02-08 14:45:00,34.2,29.0,29.80,SSE,148,0.0,0.0,80,0.00,,,0.00,weatherlink.com 1.10,2013-02-08 19:45:00,
2013-02-08 15:00:00,33.3,29.0,29.80,SSE,149,0.0,0.0,84,0.00,,,0.00,weatherlink.com 1.10,2013-02-08 20:00:00,
2013-02-08 15:15:00,31.4,28.0,29.81,NNE,29,4.0,7.0,87,0.00,,,0.00,weatherlink.com 1.10,2013-02-08 20:15:00,
2013-02-08 15:30:00,29.5,27.0,29.82,North,359,3.0,5.0,89,0.00,,,0.00,weatherlink.com 1.10,2013-02-08 20:30:00,
2013-02-08 15:45:00,28.2,26.0,29.82,North,359,2.0,6.0,91,0.00,,,0.00,weatherlink.com 1.10,2013-02-08 20:45:00,
2013-02-08 16:00:00,27.4,25.0,29.83,North,359,3.0,6.0,92,0.00,,,0.00,weatherlink.com 1.10,2013-02-08 21:00:00,
2013-02-08 16:15:00,27.0,25.0,29.83,NNE,22,3.0,6.0,92,0.00,,,0.00,weatherlink.com 1.10,2013-02-08 21:15:00,
2013-02-08 16:30:00,26.6,25.0,29.83,NE,45,4.0,8.0,93,0.00,,,0.00,weatherlink.com 1.10,2013-02-08 21:30:00,
2013-02-08 16:45:00,26.3,25.0,29.82,NE,40,7.0,9.0,93,0.00,,,0.00,weatherlink.com 1.10,2013-02-08 21:45:00,
2013-02-08 17:00:00,26.4,25.0,29.82,NE,47,6.0,11.0,94,0.00,,,0.00,weatherlink.com 1.10,2013-02-08 22:00:00,
2013-02-08 17:15:00,26.2,25.0,29.82,NE,52,8.0,10.0,94,0.00,,,0.00,weatherlink.com 1.10,2013-02-08 22:15:00,
2013-02-08 17:30:00,26.3,25.0,29.82,ENE,72,4.0,10.0,94,0.00,,,0.00,weatherlink.com 1.10,2013-02-08 22:30:00,
2013-02-08 17:45:00,26.5,25.0,29.82,ENE,71,7.0,13.0,94,0.00,,,0.00,weatherlink.com 1.10,2013-02-08 22:45:00,
2013-02-08 18:00:00,26.6,25.0,29.82,ENE,75,8.0,10.0,94,0.00,,,0.00,weatherlink.com 1.10,2013-02-08 23:00:00,
2013-02-08 18:15:00,26.9,25.0,29.82,East,85,8.0,10.0,94,0.00,,,0.00,weatherlink.com 1.10,2013-02-08 23:15:00,
2013-02-08 18:30:00,27.2,26.0,29.82,ENE,67,5.0,11.0,94,0.00,,,0.00,weatherlink.com 1.10,2013-02-08 23:30:00,
2013-02-08 18:45:00,27.6,26.0,29.82,East,82,6.0,11.0,95,0.00,,,0.00,weatherlink.com 1.10,2013-02-08 23:45:00,
2013-02-08 19:00:00,27.8,27.0,29.82,East,80,7.0,12.0,95,0.00,,,0.00,weatherlink.com 1.10,2013-02-09 00:00:00,
2013-02-08 19:15:00,28.0,27.0,29.81,ENE,75,7.0,11.0,95,0.00,,,0.00,weatherlink.com 1.10,2013-02-09 00:15:00,
2013-02-08 19:30:00,28.2,27.0,29.82,ENE,77,7.0,10.0,95,0.00,,,0.00,weatherlink.com 1.10,2013-02-09 00:30:00,
2013-02-08 19:45:00,28.3,27.0,29.82,East,81,7.0,9.0,95,0.00,,,0.00,weatherlink.com 1.10,2013-02-09 00:45:00,
2013-02-08 20:00:00,28.4,27.0,29.82,ENE,67,8.0,10.0,95,0.00,,,0.00,weatherlink.com 1.10,2013-02-09 01:00:00,
2013-02-08 20:15:00,28.4,27.0,29.82,ENE,64,5.0,10.0,95,0.00,,,0.00,weatherlink.com 1.10,2013-02-09 01:15:00,
2013-02-08 20:30:00,28.4,27.0,29.83,NE,55,6.0,10.0,95,0.00,,,0.00,weatherlink.com 1.10,2013-02-09 01:30:00,
2013-02-08 20:45:00,28.1,27.0,29.84,NE,55,5.0,9.0,95,0.00,,,0.00,weatherlink.com 1.10,2013-02-09 01:45:00,
2013-02-08 21:00:00,27.2,26.0,29.85,NNE,33,6.0,9.0,95,0.00,,,0.00,weatherlink.com 1.10,2013-02-09 02:00:00,
2013-02-08 21:15:00,26.7,26.0,29.86,NE,49,7.0,10.0,95,0.00,,,0.00,weatherlink.com 1.10,2013-02-09 02:15:00,
2013-02-08 21:30:00,26.3,25.0,29.87,NNE,27,5.0,10.0,95,0.00,,,0.00,weatherlink.com 1.10,2013-02-09 02:30:00,
2013-02-08 21:45:00,26.1,25.0,29.88,NNE,28,3.0,8.0,95,0.00,,,0.00,weatherlink.com 1.10,2013-02-09 02:45:00,
2013-02-08 22:00:00,25.9,25.0,29.89,North,8,4.0,8.0,95,0.00,,,0.00,weatherlink.com 1.10,2013-02-09 03:00:00,
2013-02-08 22:15:00,25.8,25.0,29.90,North,359,5.0,7.0,95,0.00,,,0.00,weatherlink.com 1.10,2013-02-09 03:15:00,
2013-02-08 22:30:00,25.6,24.0,29.91,North,8,2.0,7.0,95,0.00,,,0.00,weatherlink.com 1.10,2013-02-09 03:30:00,
2013-02-08 22:45:00,25.5,24.0,29.92,North,4,6.0,10.0,95,0.00,,,0.00,weatherlink.com 1.10,2013-02-09 03:45:00,
2013-02-08 23:00:00,25.4,24.0,29.93,NW,323,8.0,9.0,95,0.00,,,0.00,weatherlink.com 1.10,2013-02-09 04:00:00,
2013-02-08 23:16:00,20.8,19.0,29.94,North,359,6.0,16.0,93,0.00,,,0.00,weatherlink.com 1.10,2013-02-09 04:16:00,
2013-02-08 23:31:00,20.4,19.0,29.96,NNW,328,5.0,14.0,93,0.00,,,0.00,weatherlink.com 1.10,2013-02-09 04:31:00,
2013-02-08 23:46:00,19.7,18.0,29.97,NNW,339,4.0,12.0,93,0.00,,,0.00,weatherlink.com 1.10,2013-02-09 04:46:00,